Location: State Line Observation Field
(36.5320°N, 77.5360°W)
Time: 13:02:01
(UTC-04:00)

ITUPSAT 1 - Visible Passes

Search period start: 14 May 2021 00:00
Search period end: 24 May 2021 00:00
Orbit: 702 x 712 km, 98.6° (Epoch: 13 May)

Date Brightness Start Highest point End Pass type
(mag) Time Alt. Az. Time Alt. Az. Time Alt. Az.
15 May ? 21:02:40 10° N 21:06:58 34° WNW 21:11:14 10° SW visible
16 May ? 21:48:35 10° NW 21:50:40 13° WNW 21:52:45 10° W visible
17 May ? 20:52:59 10° N 20:57:31 44° WNW 21:01:59 10° SW visible
18 May ? 21:38:24 10° NNW 21:41:16 16° WNW 21:44:08 10° WSW visible
19 May ? 20:43:21 10° N 20:48:02 56° WNW 20:52:39 10° SSW visible
20 May ? 21:28:25 10° NNW 21:31:51 20° WNW 21:35:17 10° WSW visible
21 May ? 20:33:47 10° N 20:38:32 72° WNW 20:43:15 10° SSW visible
22 May ? 21:18:35 10° NNW 21:22:25 25° WNW 21:26:16 10° WSW visible
